Back to catalog

STARLINK-35230

AliveCommunicationsVLEO
NORAD 65681·PAYLOAD·🇺🇸 United States

Launched Sep 21, 2025 from Cape Canaveral Space Force Station

Loading…

Next Passes (next 24 hours)

TLE

FreshSource: CelesTrak SupGP

Epoch: Sep 14, 2026, 15:25 UTC

1 65681C 25212F   26257.64284722  .00060429  00000+0  17865-2 0  2571
2 65681  53.1567 184.9236 0001169  90.4420  16.5560 15.34341354    11

Track STARLINK-35230 in real time with AllMySat

Download on the App Store